| time (UTC) | temp F | wind direction | speed MPH | gust MPH | rain 1hr in | rain 24hr in | rain mn in | humidity % | barometer mb |
| 20260508124623 | 47 | 179 | 0.0 | 2.0 | 0.00 | 0.00 | 0.00 | 80 | 967.9 |
| 20260508124126 | 46 | 169 | 0.0 | 0.0 | 0.00 | 0.00 | 0.00 | 82 | 968.0 |
| 20260508123842 | 45 | 228 | 0.0 | 0.0 | 0.00 | 0.00 | 0.00 | 81 | 968.0 |
| 20260508123120 | 44 | 18 | 0.0 | 0.0 | 0.00 | 0.00 | 0.00 | 81 | 968.0 |
| 20260508122618 | 44 | 19 | 0.0 | 0.0 | 0.00 | 0.00 | 0.00 | 82 | 968.0 |
| 20260508122117 | 43 | 19 | 0.0 | 0.0 | 0.00 | 0.00 | 0.00 | 84 | 968.0 |
| 20260508121619 | 43 | 19 | 0.0 | 0.0 | 0.00 | 0.00 | 0.00 | 84 | 968.1 |
| 20260508121337 | 42 | 351 | 0.0 | 0.0 | 0.00 | 0.00 | 0.00 | 84 | 968.0 |
| 20260508120616 | 42 | 351 | 0.0 | 0.0 | 0.00 | 0.00 | 0.00 | 85 | 968.0 |
| 20260508120117 | 42 | 351 | 0.0 | 0.0 | 0.00 | 0.00 | 0.00 | 85 | 968.0 |
| 20260508115610 | 42 | 351 | 0.0 | 0.0 | 0.00 | 0.00 | 0.00 | 85 | 968.0 |
| 20260508115325 | 41 | 351 | 0.0 | 0.0 | 0.00 | 0.00 | 0.00 | 86 | 968.1 |
| 20260508114607 | 41 | 351 | 0.0 | 0.0 | 0.00 | 0.00 | 0.00 | 87 | 968.1 |
| 20260508114104 | 41 | 351 | 0.0 | 0.0 | 0.00 | 0.00 | 0.00 | 88 | 968.2 |
| 20260508113608 | 40 | 351 | 0.0 | 0.0 | 0.00 | 0.00 | 0.00 | 88 | 968.2 |
| 20260508113104 | 40 | 351 | 0.0 | 0.0 | 0.00 | 0.00 | 0.00 | 88 | 968.3 |
| 20260508112603 | 40 | 351 | 0.0 | 0.0 | 0.00 | 0.00 | 0.00 | 90 | 968.2 |
| 20260508112324 | 39 | 351 | 0.0 | 0.0 | 0.00 | 0.00 | 0.00 | 90 | 968.2 |
| 20260508111819 | 39 | 351 | 0.0 | 0.0 | 0.00 | 0.00 | 0.00 | 91 | 968.1 |
| 20260508111322 | 38 | 351 | 0.0 | 0.0 | 0.00 | 0.00 | 0.00 | 91 | 968.2 |
| 20260508110559 | 37 | 351 | 0.0 | 0.0 | 0.00 | 0.00 | 0.00 | 92 | 968.2 |
| 20260508110322 | 37 | 351 | 0.0 | 0.0 | 0.00 | 0.00 | 0.00 | 93 | 968.1 |
| 20260508105559 | 37 | 351 | 0.0 | 0.0 | 0.00 | 0.00 | 0.00 | 93 | 968.0 |
| 20260508105058 | 37 | 351 | 0.0 | 0.0 | 0.00 | 0.00 | 0.00 | 93 | 968.0 |
| 20260508104558 | 37 | 351 | 0.0 | 0.0 | 0.00 | 0.00 | 0.00 | 93 | 968.0 |
| 20260508104057 | 37 | 351 | 0.0 | 0.0 | 0.00 | 0.00 | 0.00 | 93 | 967.9 |
| 20260508103559 | 37 | 351 | 0.0 | 0.0 | 0.00 | 0.00 | 0.00 | 93 | 967.8 |
| 20260508103056 | 37 | 351 | 0.0 | 0.0 | 0.00 | 0.00 | 0.00 | 94 | 967.8 |
| 20260508102822 | 36 | 351 | 0.0 | 0.0 | 0.00 | 0.00 | 0.00 | 94 | 967.7 |
| 20260508102543 | 36 | 351 | 0.0 | 0.0 | 0.00 | 0.00 | 0.00 | 94 | 967.9 |
| 20260508101553 | 36 | 351 | 0.0 | 0.0 | 0.00 | 0.00 | 0.00 | 94 | 967.8 |
| 20260508101322 | 35 | 351 | 0.0 | 0.0 | 0.00 | 0.00 | 0.00 | 94 | 967.7 |
| 20260508100551 | 35 | 351 | 0.0 | 0.0 | 0.00 | 0.00 | 0.00 | 94 | 967.7 |
| 20260508100314 | 35 | 351 | 0.0 | 0.0 | 0.00 | 0.00 | 0.00 | 94 | 967.5 |
| 20260508095551 | 35 | 351 | 0.0 | 0.0 | 0.00 | 0.00 | 0.00 | 94 | 967.5 |
| 20260508095051 | 35 | 351 | 0.0 | 0.0 | 0.00 | 0.00 | 0.00 | 94 | 967.5 |
| 20260508094553 | 35 | 351 | 0.0 | 0.0 | 0.00 | 0.00 | 0.00 | 94 | 967.6 |
| 20260508094048 | 35 | 351 | 0.0 | 0.0 | 0.00 | 0.00 | 0.00 | 94 | 967.6 |
| 20260508093548 | 35 | 351 | 0.0 | 0.0 | 0.00 | 0.00 | 0.00 | 94 | 967.5 |
| 20260508093048 | 35 | 351 | 0.0 | 0.0 | 0.00 | 0.00 | 0.00 | 94 | 967.5 |
| 20260508092548 | 35 | 351 | 0.0 | 0.0 | 0.00 | 0.00 | 0.00 | 94 | 967.5 |
| 20260508092047 | 35 | 351 | 0.0 | 0.0 | 0.00 | 0.00 | 0.00 | 94 | 967.4 |
| 20260508091547 | 35 | 351 | 0.0 | 0.0 | 0.00 | 0.00 | 0.00 | 94 | 967.5 |
| 20260508091047 | 35 | 351 | 0.0 | 0.0 | 0.00 | 0.00 | 0.00 | 94 | 967.5 |
| 20260508090548 | 35 | 351 | 0.0 | 0.0 | 0.00 | 0.00 | 0.00 | 95 | 967.5 |
| 20260508090319 | 35 | 351 | 0.0 | 0.0 | 0.00 | 0.00 | 0.00 | 95 | 967.5 |
| 20260508085814 | 35 | 351 | 0.0 | 0.0 | 0.00 | 0.00 | 0.00 | 95 | 967.4 |
| 20260508085043 | 35 | 351 | 0.0 | 0.0 | 0.00 | 0.00 | 0.00 | 95 | 967.4 |
| 20260508084804 | 35 | 351 | 0.0 | 0.0 | 0.00 | 0.00 | 0.00 | 95 | 967.4 |
| 20260508084044 | 35 | 351 | 0.0 | 0.0 | 0.00 | 0.00 | 0.00 | 94 | 967.4 |
| 20260508083545 | 35 | 351 | 0.0 | 0.0 | 0.00 | 0.00 | 0.00 | 94 | 967.4 |
| 20260508083045 | 35 | 351 | 0.0 | 0.0 | 0.00 | 0.00 | 0.00 | 94 | 967.4 |
| 20260508082804 | 36 | 351 | 0.0 | 0.0 | 0.00 | 0.00 | 0.00 | 94 | 967.4 |
| 20260508082044 | 36 | 351 | 0.0 | 0.0 | 0.00 | 0.00 | 0.00 | 94 | 967.4 |
| 20260508081545 | 36 | 351 | 0.0 | 0.0 | 0.00 | 0.00 | 0.00 | 94 | 967.4 |
| 20260508081354 | 36 | 351 | 0.0 | 0.0 | 0.00 | 0.00 | 0.00 | 94 | 967.4 |
| 20260508081316 | 36 | 351 | 0.0 | 0.0 | 0.00 | 0.00 | 0.00 | 94 | 967.4 |
| 20260508080045 | 36 | 351 | 0.0 | 0.0 | 0.00 | 0.00 | 0.00 | 94 | 967.4 |
| 20260508075543 | 36 | 351 | 0.0 | 0.0 | 0.00 | 0.00 | 0.00 | 94 | 967.4 |
| 20260508075041 | 36 | 351 | 0.0 | 0.0 | 0.00 | 0.00 | 0.00 | 94 | 967.4 |
| 20260508074540 | 36 | 351 | 0.0 | 0.0 | 0.00 | 0.00 | 0.00 | 94 | 967.4 |
| 20260508074037 | 37 | 351 | 0.0 | 0.0 | 0.00 | 0.00 | 0.00 | 94 | 967.3 |
| 20260508073537 | 37 | 351 | 0.0 | 0.0 | 0.00 | 0.00 | 0.00 | 94 | 967.4 |
| 20260508073254 | 37 | 351 | 0.0 | 0.0 | 0.00 | 0.00 | 0.00 | 95 | 967.3 |
| 20260508072535 | 37 | 351 | 0.0 | 0.0 | 0.00 | 0.00 | 0.00 | 95 | 967.3 |
| 20260508072031 | 37 | 351 | 0.0 | 0.0 | 0.00 | 0.00 | 0.00 | 95 | 967.3 |
| 20260508071529 | 37 | 350 | 0.0 | 0.0 | 0.00 | 0.00 | 0.00 | 95 | 967.4 |
| 20260508071030 | 37 | 351 | 0.0 | 0.0 | 0.00 | 0.00 | 0.00 | 95 | 967.5 |
| 20260508070531 | 37 | 351 | 0.0 | 0.0 | 0.00 | 0.00 | 0.00 | 95 | 967.6 |
| 20260508070024 | 37 | 351 | 0.0 | 0.0 | 0.00 | 0.00 | 0.00 | 95 | 967.7 |
| 20260508065523 | 37 | 351 | 0.0 | 0.0 | 0.00 | 0.00 | 0.00 | 95 | 967.7 |
| 20260508065022 | 37 | 351 | 0.0 | 0.0 | 0.00 | 0.00 | 0.00 | 95 | 967.7 |
| 20260508064519 | 37 | 351 | 0.0 | 0.0 | 0.00 | 0.00 | 0.00 | 95 | 967.7 |
| 20260508064021 | 37 | 351 | 0.0 | 0.0 | 0.00 | 0.00 | 0.00 | 95 | 967.7 |
| 20260508063521 | 37 | 351 | 0.0 | 0.0 | 0.00 | 0.00 | 0.00 | 95 | 967.8 |
| 20260508063242 | 38 | 351 | 0.0 | 0.0 | 0.00 | 0.00 | 0.00 | 96 | 967.8 |
| 20260508062521 | 38 | 351 | 0.0 | 0.0 | 0.00 | 0.00 | 0.00 | 96 | 967.8 |
| 20260508062019 | 38 | 351 | 0.0 | 0.0 | 0.00 | 0.00 | 0.00 | 96 | 967.8 |
| 20260508061516 | 38 | 351 | 0.0 | 0.0 | 0.00 | 0.00 | 0.00 | 96 | 967.7 |
| 20260508061237 | 38 | 351 | 0.0 | 0.0 | 0.00 | 0.00 | 0.00 | 96 | 967.7 |
| 20260508060511 | 38 | 351 | 0.0 | 0.0 | 0.00 | 0.00 | 0.00 | 96 | 967.7 |
| 20260508060013 | 38 | 351 | 0.0 | 0.0 | 0.00 | 0.00 | 0.00 | 96 | 967.7 |
| 20260508055512 | 38 | 351 | 0.0 | 0.0 | 0.00 | 0.00 | 0.00 | 96 | 967.7 |
| 20260508055011 | 38 | 351 | 0.0 | 0.0 | 0.00 | 0.00 | 0.00 | 95 | 967.7 |
| 20260508054733 | 38 | 351 | 0.0 | 0.0 | 0.00 | 0.00 | 0.00 | 95 | 967.7 |
| 20260508054232 | 38 | 350 | 0.0 | 0.0 | 0.00 | 0.00 | 0.00 | 95 | 967.7 |
| 20260508053512 | 38 | 351 | 0.0 | 0.0 | 0.00 | 0.00 | 0.00 | 95 | 967.8 |
| 20260508053010 | 38 | 351 | 0.0 | 0.0 | 0.00 | 0.00 | 0.00 | 95 | 967.8 |
| 20260508052504 | 39 | 351 | 0.0 | 0.0 | 0.00 | 0.00 | 0.00 | 95 | 967.9 |
| 20260508051958 | 39 | 351 | 0.0 | 0.0 | 0.00 | 0.00 | 0.00 | 95 | 967.9 |
| 20260508051452 | 39 | 351 | 0.0 | 0.0 | 0.00 | 0.00 | 0.00 | 95 | 967.9 |
| 20260508050945 | 39 | 351 | 0.0 | 0.0 | 0.00 | 0.00 | 0.00 | 95 | 967.8 |
| 20260508050440 | 39 | 351 | 0.0 | 0.0 | 0.00 | 0.00 | 0.00 | 94 | 967.8 |
| 20260508045934 | 39 | 351 | 0.0 | 0.0 | 0.00 | 0.00 | 0.00 | 94 | 967.8 |
| 20260508045654 | 39 | 351 | 0.0 | 0.0 | 0.00 | 0.00 | 0.00 | 94 | 967.8 |
| 20260508044922 | 40 | 351 | 0.0 | 0.0 | 0.00 | 0.00 | 0.00 | 94 | 967.8 |
| 20260508044416 | 40 | 351 | 0.0 | 0.0 | 0.00 | 0.00 | 0.00 | 94 | 967.8 |
| 20260508043910 | 40 | 351 | 0.0 | 0.0 | 0.00 | 0.00 | 0.00 | 94 | 967.8 |
| 20260508043405 | 40 | 351 | 0.0 | 0.0 | 0.00 | 0.00 | 0.00 | 94 | 967.8 |
| 20260508042905 | 40 | 350 | 0.0 | 0.0 | 0.00 | 0.00 | 0.00 | 94 | 967.7 |
| 20260508042406 | 40 | 351 | 0.0 | 0.0 | 0.00 | 0.00 | 0.00 | 94 | 967.7 |
| 20260508041904 | 40 | 351 | 0.0 | 0.0 | 0.00 | 0.00 | 0.00 | 94 | 967.7 |
| 20260508041402 | 40 | 351 | 0.0 | 0.0 | 0.00 | 0.00 | 0.00 | 94 | 967.7 |
| 20260508040900 | 40 | 351 | 0.0 | 0.0 | 0.00 | 0.00 | 0.00 | 94 | 967.5 |
| 20260508040358 | 40 | 351 | 0.0 | 0.0 | 0.00 | 0.00 | 0.00 | 93 | 967.5 |
| 20260508035856 | 41 | 351 | 0.0 | 0.0 | 0.00 | 0.00 | 0.00 | 92 | 967.4 |
| 20260508035616 | 41 | 351 | 0.0 | 0.0 | 0.00 | 0.00 | 0.00 | 92 | 967.4 |
| 20260508035118 | 41 | 351 | 0.0 | 0.0 | 0.00 | 0.00 | 0.00 | 92 | 967.3 |
| 20260508034349 | 41 | 351 | 0.0 | 0.0 | 0.00 | 0.00 | 0.00 | 91 | 967.3 |
| 20260508033849 | 42 | 351 | 0.0 | 0.0 | 0.00 | 0.00 | 0.00 | 91 | 967.3 |
| 20260508033345 | 42 | 351 | 0.0 | 0.0 | 0.00 | 0.00 | 0.00 | 90 | 967.3 |
| 20260508032845 | 42 | 350 | 0.0 | 0.0 | 0.00 | 0.00 | 0.00 | 89 | 967.1 |
| 20260508032345 | 43 | 351 | 0.0 | 0.0 | 0.00 | 0.00 | 0.00 | 88 | 967.2 |
| 20260508031845 | 43 | 351 | 0.0 | 0.0 | 0.00 | 0.00 | 0.00 | 88 | 967.2 |
| 20260508031345 | 43 | 351 | 0.0 | 0.0 | 0.00 | 0.00 | 0.00 | 87 | 967.2 |
| 20260508030845 | 44 | 350 | 0.0 | 0.0 | 0.00 | 0.00 | 0.00 | 87 | 967.1 |
| 20260508030346 | 44 | 351 | 0.0 | 0.0 | 0.00 | 0.00 | 0.00 | 87 | 967.1 |
| 20260508025849 | 45 | 351 | 0.0 | 0.0 | 0.00 | 0.00 | 0.00 | 85 | 967.1 |
| 20260508025343 | 45 | 350 | 0.0 | 0.0 | 0.00 | 0.00 | 0.00 | 84 | 967.1 |
| 20260508024837 | 46 | 351 | 0.0 | 0.0 | 0.00 | 0.00 | 0.00 | 83 | 967.0 |
| 20260508024331 | 46 | 350 | 0.0 | 3.0 | 0.00 | 0.00 | 0.00 | 82 | 967.1 |
| 20260508023825 | 46 | 76 | 0.0 | 7.0 | 0.00 | 0.00 | 0.00 | 81 | 967.0 |
| 20260508023319 | 47 | 26 | 1.0 | 8.0 | 0.00 | 0.00 | 0.00 | 80 | 967.0 |
| 20260508022812 | 47 | 281 | 2.0 | 8.0 | 0.00 | 0.00 | 0.00 | 79 | 967.0 |
| 20260508022750 | 47 | 40 | 2.0 | 16.0 | 0.00 | 0.00 | 0.00 | 80 | 966.8 |
| 20260508021802 | 48 | 290 | 5.0 | 16.0 | 0.00 | 0.00 | 0.00 | 80 | 966.6 |
| 20260508021255 | 49 | 5 | 8.0 | 23.0 | 0.00 | 0.00 | 0.00 | 77 | 966.8 |
| 20260508020749 | 50 | 343 | 6.0 | 23.0 | 0.00 | 0.00 | 0.00 | 71 | 966.4 |
| 20260508020509 | 52 | 346 | 1.0 | 11.0 | 0.00 | 0.00 | 0.00 | 58 | 966.6 |
| 20260508015737 | 52 | 294 | 0.0 | 2.0 | 0.00 | 0.00 | 0.00 | 58 | 966.0 |
| 20260508015231 | 52 | 294 | 0.0 | 2.0 | 0.00 | 0.00 | 0.00 | 57 | 965.8 |
| 20260508014725 | 52 | 286 | 0.0 | 2.0 | 0.00 | 0.00 | 0.00 | 58 | 965.7 |
| 20260508014218 | 52 | 312 | 0.0 | 1.0 | 0.00 | 0.00 | 0.00 | 58 | 965.6 |
| 20260508013936 | 52 | 306 | 0.0 | 1.0 | 0.00 | 0.00 | 0.00 | 56 | 965.5 |
| 20260508013436 | 53 | 298 | 0.0 | 1.0 | 0.00 | 0.00 | 0.00 | 55 | 965.4 |
| 20260508012701 | 53 | 298 | 0.0 | 1.0 | 0.00 | 0.00 | 0.00 | 56 | 965.3 |
| 20260508012410 | 54 | 300 | 0.0 | 3.0 | 0.00 | 0.00 | 0.00 | 54 | 965.3 |
| 20260508011648 | 54 | 300 | 0.0 | 3.0 | 0.00 | 0.00 | 0.00 | 53 | 965.2 |
| 20260508011143 | 54 | 287 | 0.0 | 1.0 | 0.00 | 0.00 | 0.00 | 52 | 965.1 |
| 20260508010637 | 55 | 284 | 0.0 | 2.0 | 0.00 | 0.00 | 0.00 | 51 | 964.9 |
| 20260508010356 | 55 | 275 | 0.0 | 3.0 | 0.00 | 0.00 | 0.00 | 51 | 964.9 |
| 20260508005624 | 55 | 289 | 0.0 | 3.0 | 0.00 | 0.00 | 0.00 | 51 | 964.8 |
| 20260508005338 | 55 | 306 | 0.0 | 2.0 | 0.00 | 0.00 | 0.00 | 52 | 964.8 |
| 20260508004609 | 55 | 296 | 0.0 | 2.0 | 0.00 | 0.00 | 0.00 | 52 | 964.6 |
| 20260508004103 | 55 | 296 | 0.0 | 3.0 | 0.00 | 0.00 | 0.00 | 54 | 964.6 |
| 20260508003558 | 55 | 298 | 0.0 | 0.0 | 0.00 | 0.00 | 0.00 | 55 | 964.6 |
| 20260508003052 | 55 | 298 | 0.0 | 0.0 | 0.00 | 0.00 | 0.00 | 54 | 964.4 |
| 20260508002546 | 55 | 298 | 0.0 | 0.0 | 0.00 | 0.00 | 0.00 | 54 | 964.4 |
| 20260508002040 | 55 | 298 | 0.0 | 0.0 | 0.00 | 0.00 | 0.00 | 55 | 964.4 |
| 20260508001534 | 55 | 298 | 0.0 | 0.0 | 0.00 | 0.00 | 0.00 | 54 | 964.3 |
| 20260508001028 | 55 | 298 | 0.0 | 0.0 | 0.00 | 0.00 | 0.00 | 55 | 964.3 |
| 20260508000521 | 56 | 298 | 0.0 | 1.0 | 0.00 | 0.00 | 0.00 | 54 | 964.2 |
| 20260508000016 | 56 | 298 | 0.0 | 1.0 | 0.00 | 0.00 | 0.00 | 53 | 964.2 |
| 20260507235510 | 56 | 298 | 0.0 | 1.0 | 0.00 | 0.00 | 0.00 | 52 | 964.2 |
| 20260507235004 | 56 | 298 | 0.0 | 1.0 | 0.00 | 0.00 | 0.00 | 51 | 964.1 |
| 20260507234457 | 57 | 298 | 0.0 | 0.0 | 0.00 | 0.00 | 0.00 | 51 | 964.1 |
| 20260507233958 | 57 | 298 | 0.0 | 1.0 | 0.00 | 0.00 | 0.00 | 49 | 964.1 |
| 20260507233458 | 57 | 298 | 0.0 | 1.0 | 0.00 | 0.00 | 0.00 | 49 | 964.0 |
| 20260507232954 | 57 | 298 | 0.0 | 2.0 | 0.00 | 0.00 | 0.00 | 49 | 964.0 |
| 20260507232453 | 58 | 297 | 0.0 | 3.0 | 0.00 | 0.00 | 0.00 | 49 | 964.0 |
| 20260507231954 | 58 | 297 | 0.0 | 3.0 | 0.00 | 0.00 | 0.00 | 47 | 963.9 |
| 20260507231452 | 58 | 282 | 0.0 | 2.0 | 0.00 | 0.00 | 0.00 | 47 | 963.8 |
| 20260507230950 | 58 | 302 | 0.0 | 5.0 | 0.00 | 0.00 | 0.00 | 49 | 963.9 |
| 20260507230447 | 58 | 294 | 1.0 | 7.0 | 0.00 | 0.00 | 0.00 | 47 | 963.8 |
| 20260507225947 | 58 | 318 | 1.0 | 7.0 | 0.00 | 0.00 | 0.00 | 47 | 963.8 |
| 20260507225719 | 58 | 294 | 2.0 | 7.0 | 0.00 | 0.00 | 0.00 | 46 | 963.9 |
| 20260507224943 | 58 | 224 | 2.0 | 5.0 | 0.00 | 0.00 | 0.00 | 45 | 963.8 |
| 20260507224443 | 58 | 299 | 2.0 | 5.0 | 0.00 | 0.00 | 0.00 | 45 | 963.8 |
| 20260507223944 | 59 | 190 | 1.0 | 5.0 | 0.00 | 0.00 | 0.00 | 46 | 963.7 |
| 20260507223445 | 59 | 232 | 1.0 | 4.0 | 0.00 | 0.00 | 0.00 | 45 | 963.7 |
| 20260507222942 | 59 | 298 | 1.0 | 4.0 | 0.00 | 0.00 | 0.00 | 48 | 963.7 |
| 20260507222442 | 59 | 303 | 1.0 | 4.0 | 0.00 | 0.00 | 0.00 | 48 | 963.6 |
| 20260507221942 | 59 | 306 | 1.0 | 3.0 | 0.00 | 0.00 | 0.00 | 47 | 963.6 |
| 20260507221442 | 59 | 286 | 1.0 | 5.0 | 0.00 | 0.00 | 0.00 | 45 | 963.6 |
| 20260507221202 | 60 | 335 | 1.0 | 5.0 | 0.00 | 0.00 | 0.00 | 46 | 963.8 |
| 20260507220441 | 60 | 46 | 1.0 | 5.0 | 0.00 | 0.00 | 0.00 | 45 | 963.8 |
| 20260507215940 | 60 | 17 | 1.0 | 7.0 | 0.00 | 0.00 | 0.00 | 44 | 963.8 |
| 20260507215442 | 61 | 163 | 1.0 | 7.0 | 0.00 | 0.00 | 0.00 | 44 | 963.8 |
| 20260507214940 | 61 | 125 | 1.0 | 6.0 | 0.00 | 0.00 | 0.00 | 47 | 963.7 |
| 20260507214439 | 60 | 336 | 1.0 | 6.0 | 0.00 | 0.00 | 0.00 | 45 | 963.8 |
| 20260507213937 | 60 | 27 | 1.0 | 7.0 | 0.00 | 0.00 | 0.00 | 45 | 963.7 |
| 20260507213437 | 60 | 246 | 1.0 | 7.0 | 0.00 | 0.00 | 0.00 | 42 | 963.7 |
| 20260507212936 | 60 | 256 | 2.0 | 9.0 | 0.00 | 0.00 | 0.00 | 44 | 963.7 |
| 20260507212438 | 60 | 34 | 2.0 | 9.0 | 0.00 | 0.00 | 0.00 | 43 | 963.6 |
| 20260507211938 | 60 | 290 | 2.0 | 10.0 | 0.00 | 0.00 | 0.00 | 44 | 963.6 |
| 20260507211659 | 60 | 36 | 1.0 | 10.0 | 0.00 | 0.00 | 0.00 | 43 | 963.6 |
| 20260507210934 | 61 | 299 | 0.0 | 3.0 | 0.00 | 0.00 | 0.00 | 44 | 963.7 |
| 20260507210435 | 60 | 88 | 1.0 | 7.0 | 0.00 | 0.00 | 0.00 | 44 | 963.6 |
| 20260507205933 | 60 | 286 | 1.0 | 7.0 | 0.00 | 0.00 | 0.00 | 44 | 963.7 |
| 20260507205432 | 60 | 271 | 1.0 | 7.0 | 0.00 | 0.00 | 0.00 | 45 | 963.7 |
| 20260507204932 | 60 | 30 | 2.0 | 8.0 | 0.00 | 0.00 | 0.00 | 44 | 963.6 |
| 20260507204430 | 61 | 281 | 2.0 | 8.0 | 0.00 | 0.00 | 0.00 | 42 | 963.7 |
| 20260507203932 | 62 | 331 | 3.0 | 9.0 | 0.00 | 0.00 | 0.00 | 43 | 963.7 |
| 20260507203431 | 62 | 350 | 2.0 | 9.0 | 0.00 | 0.00 | 0.00 | 43 | 963.7 |
| 20260507202932 | 61 | 30 | 1.0 | 6.0 | 0.00 | 0.00 | 0.00 | 42 | 963.8 |
| 20260507202427 | 61 | 304 | 1.0 | 6.0 | 0.00 | 0.00 | 0.00 | 40 | 963.8 |
| 20260507202149 | 61 | 250 | 1.0 | 10.0 | 0.00 | 0.00 | 0.00 | 41 | 963.8 |
| 20260507201428 | 61 | 226 | 2.0 | 10.0 | 0.00 | 0.00 | 0.00 | 45 | 963.8 |
| 20260507200926 | 61 | 342 | 2.0 | 6.0 | 0.00 | 0.00 | 0.00 | 41 | 963.8 |
| 20260507200648 | 61 | 342 | 2.0 | 5.0 | 0.00 | 0.00 | 0.00 | 43 | 963.8 |
| 20260507195927 | 61 | 276 | 2.0 | 7.0 | 0.00 | 0.00 | 0.00 | 42 | 964.0 |
| 20260507195426 | 62 | 290 | 1.0 | 7.0 | 0.00 | 0.00 | 0.00 | 41 | 964.0 |
| 20260507194926 | 61 | 313 | 1.0 | 6.0 | 0.00 | 0.00 | 0.00 | 42 | 963.9 |
| 20260507194428 | 62 | 309 | 1.0 | 6.0 | 0.00 | 0.00 | 0.00 | 40 | 964.0 |
| 20260507193922 | 60 | 229 | 1.0 | 4.0 | 0.00 | 0.00 | 0.00 | 44 | 964.1 |
| 20260507193422 | 60 | 298 | 1.0 | 5.0 | 0.00 | 0.00 | 0.00 | 43 | 964.1 |
| 20260507192924 | 60 | 321 | 2.0 | 9.0 | 0.00 | 0.00 | 0.00 | 42 | 964.2 |
| 20260507192422 | 61 | 346 | 2.0 | 9.0 | 0.00 | 0.00 | 0.00 | 41 | 964.2 |
| 20260507191923 | 62 | 311 | 2.0 | 8.0 | 0.00 | 0.00 | 0.00 | 43 | 964.2 |
| 20260507191643 | 62 | 266 | 2.0 | 8.0 | 0.00 | 0.00 | 0.00 | 42 | 964.2 |
| 20260507190923 | 61 | 25 | 1.0 | 6.0 | 0.00 | 0.00 | 0.00 | 44 | 964.2 |
| 20260507190423 | 60 | 134 | 1.0 | 5.0 | 0.00 | 0.00 | 0.00 | 44 | 964.3 |
| 20260507185922 | 60 | 302 | 1.0 | 6.0 | 0.00 | 0.00 | 0.00 | 46 | 964.4 |
| 20260507185422 | 60 | 271 | 2.0 | 6.0 | 0.00 | 0.00 | 0.00 | 46 | 964.4 |
| 20260507184924 | 61 | 227 | 2.0 | 8.0 | 0.00 | 0.00 | 0.00 | 42 | 964.5 |
| 20260507184422 | 60 | 334 | 2.0 | 8.0 | 0.00 | 0.00 | 0.00 | 48 | 964.5 |
| 20260507183923 | 59 | 330 | 2.0 | 7.0 | 0.00 | 0.00 | 0.00 | 47 | 964.5 |
| 20260507183422 | 59 | 44 | 2.0 | 13.0 | 0.00 | 0.00 | 0.00 | 45 | 964.5 |
| 20260507182923 | 60 | 51 | 2.0 | 13.0 | 0.00 | 0.00 | 0.00 | 44 | 964.6 |
| 20260507182424 | 61 | 205 | 2.0 | 6.0 | 0.00 | 0.00 | 0.00 | 41 | 964.6 |
| 20260507181925 | 61 | 289 | 2.0 | 7.0 | 0.00 | 0.00 | 0.00 | 47 | 964.4 |
| 20260507181423 | 61 | 326 | 1.0 | 7.0 | 0.00 | 0.00 | 0.00 | 45 | 964.7 |
| 20260507180922 | 61 | 304 | 1.0 | 10.0 | 0.00 | 0.00 | 0.00 | 46 | 964.7 |
| 20260507180423 | 60 | 238 | 2.0 | 10.0 | 0.00 | 0.00 | 0.00 | 40 | 964.7 |
| 20260507180411 | 60 | 346 | 2.0 | 10.0 | 0.00 | 0.00 | 0.00 | 43 | 964.8 |
| 20260507175857 | 59 | 269 | 2.0 | 10.0 | 0.00 | 0.00 | 0.00 | 43 | 964.9 |
| 20260507174903 | 59 | 285 | 2.0 | 7.0 | 0.00 | 0.00 | 0.00 | 45 | 965.0 |
| 20260507174621 | 59 | 326 | 1.0 | 7.0 | 0.00 | 0.01 | 0.00 | 43 | 965.0 |
| 20260507173855 | 59 | 315 | 1.0 | 9.0 | 0.00 | 0.01 | 0.00 | 46 | 965.2 |
| 20260507173355 | 60 | 306 | 3.0 | 13.0 | 0.00 | 0.01 | 0.00 | 44 | 965.2 |
| 20260507172854 | 61 | 342 | 3.0 | 13.0 | 0.00 | 0.01 | 0.00 | 42 | 965.2 |
| 20260507172354 | 60 | 347 | 2.0 | 9.0 | 0.00 | 0.01 | 0.00 | 44 | 965.2 |
| 20260507171853 | 59 | 219 | 2.0 | 7.0 | 0.00 | 0.01 | 0.00 | 43 | 965.3 |
| 20260507171353 | 60 | 318 | 2.0 | 10.0 | 0.00 | 0.02 | 0.00 | 41 | 965.3 |
| 20260507170854 | 60 | 295 | 3.0 | 13.0 | 0.00 | 0.02 | 0.00 | 42 | 965.5 |
| 20260507170351 | 60 | 295 | 3.0 | 13.0 | 0.00 | 0.02 | 0.00 | 44 | 965.5 |
| 20260507165851 | 60 | 27 | 2.0 | 10.0 | 0.00 | 0.02 | 0.00 | 42 | 965.4 |
| 20260507165352 | 60 | 289 | 1.0 | 10.0 | 0.00 | 0.02 | 0.00 | 43 | 965.5 |
| 20260507164851 | 60 | 293 | 2.0 | 8.0 | 0.00 | 0.02 | 0.00 | 44 | 965.7 |
| 20260507164350 | 60 | 319 | 2.0 | 11.0 | 0.00 | 0.02 | 0.00 | 43 | 965.7 |
| 20260507163849 | 60 | 322 | 2.0 | 11.0 | 0.00 | 0.02 | 0.00 | 47 | 965.7 |
| 20260507163348 | 60 | 282 | 2.0 | 8.0 | 0.00 | 0.02 | 0.00 | 42 | 965.8 |
| 20260507162849 | 59 | 199 | 2.0 | 7.0 | 0.00 | 0.02 | 0.00 | 48 | 965.7 |
| 20260507162349 | 59 | 274 | 2.0 | 7.0 | 0.00 | 0.02 | 0.00 | 44 | 965.9 |
| 20260507161848 | 59 | 195 | 2.0 | 7.0 | 0.00 | 0.02 | 0.00 | 46 | 966.0 |
| 20260507161344 | 59 | 242 | 1.0 | 7.0 | 0.00 | 0.02 | 0.00 | 45 | 966.0 |
| 20260507160844 | 59 | 200 | 0.0 | 3.0 | 0.00 | 0.02 | 0.00 | 49 | 966.0 |
| 20260507160342 | 58 | 263 | 1.0 | 6.0 | 0.00 | 0.02 | 0.00 | 49 | 966.1 |
| 20260507155842 | 57 | 303 | 2.0 | 7.0 | 0.00 | 0.02 | 0.00 | 52 | 966.2 |
| 20260507155342 | 56 | 52 | 2.0 | 9.0 | 0.00 | 0.03 | 0.00 | 46 | 966.4 |
| 20260507155106 | 57 | 226 | 2.0 | 9.0 | 0.00 | 0.03 | 0.00 | 47 | 966.4 |
| 20260507154605 | 56 | 285 | 2.0 | 13.0 | 0.00 | 0.03 | 0.00 | 49 | 966.3 |
| 20260507153842 | 56 | 9 | 2.0 | 13.0 | 0.00 | 0.03 | 0.00 | 50 | 966.4 |
| 20260507153340 | 56 | 286 | 2.0 | 9.0 | 0.00 | 0.03 | 0.00 | 47 | 966.4 |
| 20260507153059 | 56 | 11 | 2.0 | 9.0 | 0.00 | 0.03 | 0.00 | 46 | 966.6 |
| 20260507152341 | 57 | 49 | 2.0 | 7.0 | 0.00 | 0.03 | 0.00 | 54 | 966.6 |
| 20260507151841 | 56 | 214 | 2.0 | 7.0 | 0.00 | 0.03 | 0.00 | 51 | 966.7 |
| 20260507151825 | 56 | 28 | 2.0 | 8.0 | 0.00 | 0.03 | 0.00 | 49 | 966.9 |
| 20260507151321 | 56 | 300 | 3.0 | 8.0 | 0.00 | 0.03 | 0.00 | 51 | 967.0 |
| 20260507150342 | 56 | 50 | 2.0 | 9.0 | 0.00 | 0.03 | 0.00 | 50 | 967.0 |
| 20260507145841 | 56 | 350 | 1.0 | 9.0 | 0.00 | 0.03 | 0.00 | 53 | 967.0 |
| 20260507145340 | 56 | 355 | 1.0 | 6.0 | 0.00 | 0.03 | 0.00 | 53 | 967.1 |
| 20260507144835 | 55 | 298 | 1.0 | 5.0 | 0.00 | 0.03 | 0.00 | 53 | 967.2 |
| 20260507144329 | 55 | 298 | 1.0 | 4.0 | 0.00 | 0.03 | 0.00 | 57 | 967.2 |
| 20260507143822 | 54 | 252 | 1.0 | 4.0 | 0.00 | 0.03 | 0.00 | 55 | 967.3 |
| 20260507143317 | 54 | 46 | 1.0 | 4.0 | 0.00 | 0.03 | 0.00 | 53 | 967.4 |
| 20260507142810 | 54 | 210 | 0.0 | 4.0 | 0.00 | 0.03 | 0.00 | 54 | 967.4 |
| 20260507142537 | 54 | 304 | 0.0 | 2.0 | 0.00 | 0.03 | 0.00 | 59 | 967.5 |
| 20260507141759 | 53 | 234 | 0.0 | 5.0 | 0.00 | 0.03 | 0.00 | 60 | 967.6 |
| 20260507141253 | 52 | 151 | 0.0 | 5.0 | 0.00 | 0.03 | 0.00 | 66 | 967.7 |
| 20260507140747 | 52 | 311 | 0.0 | 2.0 | 0.00 | 0.04 | 0.00 | 63 | 967.7 |
| 20260507140508 | 52 | 198 | 0.0 | 2.0 | 0.00 | 0.04 | 0.00 | 65 | 967.7 |
| 20260507135957 | 51 | 171 | 0.0 | 1.0 | 0.00 | 0.04 | 0.00 | 62 | 967.7 |
| 20260507135228 | 51 | 151 | 0.0 | 2.0 | 0.00 | 0.04 | 0.00 | 66 | 967.8 |
| 20260507134723 | 50 | 303 | 0.0 | 2.0 | 0.00 | 0.04 | 0.00 | 64 | 967.8 |
| 20260507134217 | 50 | 270 | 0.0 | 2.0 | 0.00 | 0.05 | 0.00 | 65 | 967.7 |
| 20260507133711 | 50 | 14 | 0.0 | 2.0 | 0.00 | 0.05 | 0.00 | 65 | 967.8 |
| 20260507133204 | 49 | 234 | 0.0 | 2.0 | 0.00 | 0.05 | 0.00 | 63 | 967.8 |
| 20260507132658 | 49 | 293 | 0.0 | 2.0 | 0.00 | 0.05 | 0.00 | 66 | 967.9 |
| 20260507132414 | 49 | 300 | 0.0 | 1.0 | 0.00 | 0.05 | 0.00 | 67 | 967.9 |
| 20260507131649 | 49 | 304 | 0.0 | 1.0 | 0.00 | 0.06 | 0.00 | 66 | 968.0 |
| 20260507131150 | 48 | 311 | 0.0 | 0.0 | 0.00 | 0.06 | 0.00 | 71 | 968.0 |
| 20260507130649 | 48 | 311 | 0.0 | 0.0 | 0.00 | 0.06 | 0.00 | 70 | 968.0 |
| 20260507130146 | 48 | 292 | 0.0 | 0.0 | 0.00 | 0.06 | 0.00 | 69 | 968.2 |
| 20260507125647 | 47 | 223 | 0.0 | 0.0 | 0.00 | 0.06 | 0.00 | 69 | 968.2 |
| 20260507125141 | 47 | 285 | 0.0 | 2.0 | 0.00 | 0.06 | 0.00 | 71 | 968.2 |